User: anonymous   Login
Location: Borkenes
(68.7830°N, 16.1830°E)
Time: 13:37:54
(UTC+01:00)
Language:

Transit 2A - Orbit

View from above orbital plane
View from above orbital plane
View from above satellite
View from above satellite

Ground track
Ground track

The orbit data is extracted from the following two-line orbital elements,

1    45U 60007A   19348.81281428 -.00000058 +00000-0 +12251-4 0  9990
2    45 066.6931 150.1124 0248121 090.8012 272.1523 14.33659810039222
Epoch (UTC): 14 December 2019 19:30:27
Eccentricity: 0.0248121
inclination: 66.6931°
perigee height: 602 km
apogee height: 957 km
right ascension of ascending node: 150.1124°
argument of perigee: 90.8012°
revolutions per day: 14.33659810
mean anomaly at epoch: 272.1523°
orbit number at epoch: 3922

The dashed part of the orbit path shows where the satellite is in the earth's shadow,  

DLR